Zurück zum Katalog

STARLINK-37463

AktivKommunikationSSO
NORAD 68854·PAYLOAD·🇺🇸 United States

Gestartet Apr 26, 2026 von Vandenberg Space Force Base

Loading…

Nächste Überflüge (nächste 24 Stunden)

TLE

AktuellSource: CelesTrak SupGP

Epoche: Sep 14, 2026, 21:01 UTC

1 68854C 26094R   26257.87618056  .00028858  00000+0  89593-3 0  2579
2 68854  97.2838 271.1024 0001417  90.6012  37.9958 15.33420721    18

Verfolge STARLINK-37463 in Echtzeit mit AllMySat

Download on the App Store